Regional Weather Roundup
Issued by NWS

Home | Current Version | Previous Version | Graphics & Text | Print | Product List | Glossary On
Versions: 1 2 3 4 5 6 7 8 9 10 11 12 13 14 15 16 17 18 19 20 21 22 23 24 25 26 27 28 29 30 31 32 33 34 35 36 37 38 39 40 41 42 43 44 45 46 47 48 49 50
229
ASUS45 KTFX 230810
RWRMT
MONTANA REGIONAL WEATHER ROUNDUP
NATIONAL WEATHER SERVICE GREAT FALLS MT
200 AM MDT WED MAY 23 2018

NOTE: "FAIR" INDICATES FEW OR NO CLOUDS BELOW 12000 FEET WITH NO
SIGNIFICANT WEATHER AND/OR OBSTRUCTIONS TO VISIBILITY.

MTZ001>007-043-230900-
WEST OF THE DIVIDE

CITY           SKY/WX    TMP DP  RH WIND       PRES   REMARKS
KALISPELL      FAIR      47  44  90 CALM      29.90F
MISSOULA       FAIR      54  47  77 NE3       29.91S
BUTTE          FAIR      43  41  93 E3        30.00F
MULLAN PASS    FAIR      53  40  61 SE5       30.00F
ANACONDA         N/A     46  45  93 SW3       29.98F
DEER LODGE       N/A     46  46 100 W6        29.99F
HAMILTON         N/A     52  46  82 MISG      29.92F
PLAINS           N/A     52  47  83 CALM      29.90S
RONAN            N/A     50  45  81 CALM      29.90F
$$

MTZ008-052>055-230900-
SOUTHWEST MONTANA

CITY           SKY/WX    TMP DP  RH WIND       PRES   REMARKS
BOZEMAN        FAIR      50  49  96 NE6       29.96F
DILLON         FAIR      43  41  93 CALM      29.97F
ENNIS          MOCLDY    45  43  93 SE3       30.01F
W YELLOWSTONE  CLOUDY    45  43  93 CALM      30.01F
TWIN BRIDGES     N/A     52  45  77 N9        29.96F
$$

MTZ009-010-012-014-046-048-049-054-230900-
EAST SLOPES AND CENTRAL MONTANA

CITY           SKY/WX    TMP DP  RH WIND       PRES   REMARKS
CUT BANK       FAIR      47  45  93 NW10      29.97S
GREAT FALLS    FAIR      56  46  69 S6        29.96F
MALMSTROM AFB  FAIR      52  47  83 SW7       29.95F
HELENA         FAIR      50  48  93 W5        29.94F
AUGUSTA        FAIR      50  43  77 N7        29.97F
BOWMANS CRNR   FAIR      51  45  78 W5        29.95F
CHOTEAU          N/A     52  45  76 W3        29.98F
FAIRFIELD      FAIR      51  45  79 CALM      29.95F
RAYNESFORD     FAIR      49  46  89 CALM      29.97F
ULM            FAIR      48  46  94 SE10      29.95F
WHITE SULPHUR    N/A     43  41  93 S3        29.99S
$$

MTZ011-013-016-021-045-047-050-051-230900-
NORTH CENTRAL MONTANA

CITY           SKY/WX    TMP DP  RH WIND       PRES   REMARKS
HAVRE          FAIR      52  47  83 CALM      29.92S
LEWISTOWN      CLOUDY    53  50  89 E6        29.98S
N BAR RANCH    CLOUDY    54  48  82 W5        30.01F
CHINOOK          N/A     54  52  94 CALM      29.92S
GEYSER         MOCLDY    51  46  81 CALM      29.96F
GRASS RANGE    CLOUDY    54  50  86 W5        29.94S
JUDITH GAP     MOCLDY    51  49  93 CALM      29.99S
ROY            MOCLDY    56  48  74 W8        29.95S
STANFORD       MOCLDY    52  47  83 CALM      29.97F
WINIFRED       CLOUDY    56  52  86 CALM      29.95F
$$

MTZ017>020-022>027-061-062-230900-
NORTHEAST MONTANA

CITY           SKY/WX    TMP DP  RH WIND       PRES   REMARKS
GLASGOW        FAIR      56  49  77 NE9       29.91F
GLENDIVE       FAIR      59  53  80 NE12      29.92S
JORDAN           N/A     53  50  89 CALM      29.91S
MALTA          PTCLDY    54  50  87 NE5       29.89F
SIDNEY         FAIR      60  53  77 NE8       29.92S
WOLF POINT     FAIR      55  50  83 E3        29.92S
PLENTYWOOD       N/A     61  48  63 CALM      29.94S
SCOBEY           N/A     56  39  52 CALM      29.93F
$$

MTZ028>42-056>058-230900-
SOUTHCENTRAL AND SOUTHEAST MONTANA

CITY           SKY/WX    TMP DP  RH WIND       PRES   REMARKS
BAKER          FAIR      62  56  80 E12       29.92F
BILLINGS       TSTM      57  57 100 S3        29.97S
LIVINGSTON     FAIR      51  49  92 CALM      29.97F
MILES CITY     FAIR      61  54  77 NE7       29.88F
BIG TIMBER     CLOUDY    52  50  93 NE6       30.00S
FORSYTH          N/A     63  57  82 CALM      29.88F
HARLOWTON      MOCLDY    51  49  94 NW9       29.99S
LAUREL           N/A     55  55 100 SW5       29.98S FOG
$$

REGIONAL REPORTS...DAKOTAS

CITY           SKY/WX    TMP DP  RH WIND       PRES   REMARKS
WILLISTON      CLOUDY    62  55  77 E3        29.93F
MINOT          MOCLDY    58  51  78 CALM      29.94S
DICKINSON      FAIR      59  55  87 E8        29.92F
BEACH          FAIR      57  57 100 SE8       29.96S
CROSBY         FAIR      55  52  88 CALM      29.96R
TIOGA          FAIR      55  55 100 E5        29.96S
WATFORD CITY   FAIR      55  55 100 CALM      29.92S
BISMARCK       FAIR      63  57  81 E7        29.92F
GRAND FORKS    MOCLDY    64  56  75 S7        29.99S
FARGO          FAIR      66  56  70 SE10      29.97F
BUFFALO SD       N/A     61  55  81 NE12      29.85S
RAPID CITY     HVY RAIN  58  55  90 SW12      29.97R FOG
$$

REGIONAL REPORTS...WYOMING/IDAHO/WASHINGTON

CITY           SKY/WX    TMP DP  RH WIND       PRES   REMARKS
GILLETTE       CLOUDY    55  52  89 SW6       29.93F
SHERIDAN       CLOUDY    54  53  97 NE5       29.93F
BUFFALO WY     LGT RAIN  55  48  77 S10       29.97F
CODY           LGT RAIN  51  49  92 NE5       30.02F
YELLOWSTONE LA   N/A     40  36  86 CALM      30.08F
IDAHO FALLS    MOCLDY    55  48  77 SW3       29.94F
SALMON         FAIR      50  46  86 CALM      29.93S
BOISE          FAIR      61  51  70 SE12      29.84S
SPOKANE        FAIR      63  51  65 S7        29.83F
$$

REGIONAL REPORTS...ALBERTA

CITY           SKY/WX    TMP DP  RH WIND       PRES   REMARKS
CALGARY        PTCLDY    55  41  58 SE3       29.95F
CARDSTON         N/A     48  43  81 S3          N/A
EDMONTON       CLEAR     55  41  58 E3        29.90S
FORT MCMURRAY  CLEAR     61  41  48 NW3       29.83S
HIGH LEVEL     PTCLDY    55  46  71 CALM      29.73R
LETHBRIDGE     CLEAR     50  45  81 SW9       29.93F
LLOYDMINSTER   CLEAR     59  43  55 S5        29.92S
MEDICINE HAT   CLEAR     54  45  71 CALM      29.90F
MILK RIVER       N/A     50  46  87 NW9         N/A
ONEFOUR          N/A     55  41  58 NE14        N/A
PEACE RIVER    PTCLDY    55  41  58 NW5       29.82S
PINCHER CREEK    N/A     46  41  81 W10       29.98S
WATERTON GATE    N/A     48  37  66 SW7         N/A
$$

REGIONAL REPORTS...SASKATCHEWAN

CITY           SKY/WX    TMP DP  RH WIND       PRES   REMARKS
CORONACH         N/A     48  45  87 NW3         N/A
CYPRESS HILLS    N/A     57  36  44 E5          N/A
ESTEVAN        MOCLDY    55  50  82 CALM      29.94S
MOOSE JAW        N/A     50  43  76 SE6         N/A
PRINCE ALBERT  PTCLDY    59  46  63 E5        29.97R
REGINA         CLEAR     54  46  76 SE5       29.96S
ROCKGLEN         N/A     54  46  76 S8          N/A
SASKATOON      PTCLDY    59  46  63 E3        29.94S
SWIFT CURRENT  CLEAR     55  43  62 SE7       29.93S
VAL MARIE        N/A     50  45  81 NE5         N/A
$$




USA.gov is the U.S. government's official web portal to all federal, state and local government web resources and services.